User: anonymous   Login
Location: Saint Peter Port
(49.4500°N, 2.5330°W)
Time: 13:45:21
(UTC+00:00)
Language:

Cosmos 2242 Rocket - Orbit

View from above orbital plane
View from above orbital plane
View from above satellite
View from above satellite

Ground track
Ground track

The orbit data is extracted from the following two-line orbital elements,

1 22627U 93024B   14353.76406175  .00000551  00000-0  73232-4 0  5144
2 22627 082.5220 225.4165 0024988 069.1353 357.1048 14.77763439167679
Epoch (UTC): 19 December 2014 18:20:14
Eccentricity: 0.0024988
inclination: 82.5220°
perigee height: 619 km
apogee height: 654 km
right ascension of ascending node: 225.4165°
argument of perigee: 69.1353°
revolutions per day: 14.77763439
mean anomaly at epoch: 357.1048°
orbit number at epoch: 16767

The dashed part of the orbit path shows where the satellite is in the earth's shadow,  

DLR